K6HN Weather Reports


Display with metric or nautical units.
time (UTC)temp
F
wind
direction
speed
MPH
gust
MPH
rain 1hr
in
rain 24hr
in
rain mn
in
humidity
%
barometer
mb
20260503214259 60 257 4.0 10.0 0.00 0.00 0.03 49 998.6
20260503212759 61 221 4.0 8.0 0.00 0.00 0.03 49 999.0
20260503211259 61 262 7.0 16.0 0.00 0.00 0.03 49 998.6
20260503205759 60 165 5.0 10.0 0.00 0.00 0.03 52 998.6
20260503204259 60 202 3.0 8.0 0.00 0.00 0.03 52 998.6
20260503202759 60 199 8.0 13.0 0.00 0.00 0.03 52 998.6
20260503201259 61 262 5.0 11.0 0.00 0.00 0.03 51 999.0
20260503195759 59 231 7.0 10.0 0.00 0.00 0.03 51 999.0
20260503194259 58 219 7.0 9.0 0.01 0.00 0.03 51 998.6
20260503192759 57 207 4.0 8.0 0.01 0.00 0.03 52 999.0
20260503191259 56 247 8.0 9.0 0.01 0.00 0.03 53 999.0
20260503185759 56 223 5.0 9.0 0.01 0.00 0.03 53 999.0
20260503184259 57 186 4.0 6.0 0.00 0.00 0.02 53 999.0
20260503182759 57 205 5.0 9.0 0.00 0.00 0.02 51 998.6
20260503181259 56 276 5.0 9.0 0.00 0.00 0.02 51 999.0
20260503175759 56 150 4.0 6.0 0.00 0.00 0.02 51 998.6
20260503174259 55 230 3.0 6.0 0.00 0.00 0.02 51 998.6
20260503172759 55 239 2.0 7.0 0.00 0.00 0.02 52 998.6
20260503171259 55 224 5.0 8.0 0.01 0.00 0.02 51 998.6
20260503131259 51 285 1.0 1.0 0.00 0.00 0.00 52 996.6
20260503081259 52 286 2.0 5.0 0.00 0.00 0.00 52 997.6
20260503072759 52 302 3.0 5.0 0.00 0.00 0.00 52 997.3
20260503071259 52 244 2.0 3.0 0.00 0.00 0.00 52 997.6
20260503054259 52 288 3.0 3.0 0.00 0.00 0.00 52 997.6
20260503052759 52 265 4.0 9.0 0.00 0.00 0.00 52 998.0
20260503051259 52 254 4.0 7.0 0.00 0.00 0.00 52 998.0
20260503045759 52 315 2.0 6.0 0.00 0.00 0.00 52 998.0
20260503044259 52 265 5.0 6.0 0.00 0.00 0.00 52 998.0
20260503042759 52 251 3.0 5.0 0.00 0.00 0.00 52 998.0
20260503041259 52 260 4.0 7.0 0.00 0.00 0.00 52 997.6
20260503035759 52 298 3.0 6.0 0.00 0.00 0.00 52 997.6
20260503034259 52 251 5.0 7.0 0.00 0.00 0.00 52 997.6
20260503032759 52 281 3.0 7.0 0.00 0.00 0.00 52 997.3
20260503031259 52 247 4.0 7.0 0.00 0.00 0.00 52 997.3
20260503025759 52 311 5.0 7.0 0.00 0.00 0.00 52 997.0
20260503024259 52 313 4.0 10.0 0.00 0.00 0.00 51 997.0
20260503022759 52 321 5.0 7.0 0.00 0.00 0.00 51 997.0
20260503021259 53 281 6.0 7.0 0.00 0.00 0.00 51 997.0
20260503015759 53 290 2.0 8.0 0.00 0.00 0.00 51 997.3
20260503014259 53 298 2.0 8.0 0.00 0.00 0.00 51 997.3
20260503012759 53 312 4.0 9.0 0.00 0.00 0.00 51 997.3
20260503011259 54 277 5.0 13.0 0.00 0.00 0.00 51 997.3
20260503005759 54 309 5.0 9.0 0.00 0.00 0.00 51 997.6
20260503004259 54 278 5.0 9.0 0.00 0.00 0.00 51 997.3
20260503002759 55 264 2.0 5.0 0.00 0.00 0.00 51 997.6
20260503001259 55 286 5.0 8.0 0.00 0.00 0.00 51 997.6
20260502235759 55 307 2.0 7.0 0.00 0.00 0.00 51 997.6
20260502234259 55 312 4.0 8.0 0.00 0.00 0.00 51 998.0
20260502232759 55 318 3.0 8.0 0.00 0.00 0.00 50 997.6
20260502231259 56 253 4.0 8.0 0.00 0.00 0.00 51 998.0
20260502225759 55 262 5.0 8.0 0.00 0.00 0.00 49 998.3
20260502224259 55 212 3.0 6.0 0.00 0.00 0.00 51 998.6
20260502222759 55 241 3.0 7.0 0.00 0.00 0.00 50 999.0
20260502221259 56 284 3.0 6.0 0.00 0.00 0.00 51 999.0
20260502215759 57 245 6.0 8.0 0.00 0.00 0.00 51 999.0